This is the latest recevied weather packets stored in our database for station/object KF0WJA. If no packets are shown the sender has not sent any weather packets the latest 10 day(s).
| Time | Temp. | Humidity | Pressure | Rain* | Wind** | Luminosity | Snow |
|---|---|---|---|---|---|---|---|
| 1788267291 | 25.56° C | 59% | 1019.6 hPa | 0 mm | - | 46 W/m² | - |
| 1788266991 | 25.56° C | 59% | 1019.7 hPa | 0 mm | - | 42 W/m² | - |
| 1788266686 | 25° C | 59% | 1019.6 hPa | 0 mm | - | 37 W/m² | - |
| 1788266381 | 25° C | 60% | 1019.3 hPa | 0 mm | - | 33 W/m² | - |
| 1788266076 | 25° C | 60% | 1019.4 hPa | 0 mm | - | 27 W/m² | - |
| 1788265774 | 24.44° C | 61% | 1019.3 hPa | 0 mm | - | 24 W/m² | - |
| 1788265474 | 24.44° C | 61% | 1019.2 hPa | 0 mm | - | 20 W/m² | - |
| 1788265173 | 23.89° C | 62% | 1019.3 hPa | 0 mm | - | 15 W/m² | - |
| 1788264868 | 23.89° C | 62% | 1019.2 hPa | 0 mm | - | 11 W/m² | - |
| 1788264563 | 23.89° C | 63% | 1019.1 hPa | 0 mm | - | 8 W/m² | - |
| 1788264263 | 23.89° C | 63% | 1019.1 hPa | 0 mm | - | 4 W/m² | - |
| 1788263959 | 23.89° C | 62% | 1019.1 hPa | 0 mm | - | 2 W/m² | - |
| 1788263658 | 23.89° C | 62% | 1019 hPa | 0 mm | - | 0 W/m² | - |
| 1788263356 | 23.89° C | 62% | 1018.9 hPa | 0 mm | - | 0 W/m² | - |
| 1788262750 | 23.89° C | 61% | 1019 hPa | 0 mm | - | 0 W/m² | - |
| 1788262449 | 24.44° C | 61% | 1018.7 hPa | 0 mm | - | 0 W/m² | - |
| 1788262144 | 24.44° C | 61% | 1018.9 hPa | 0 mm | - | 0 W/m² | - |
| 1788261840 | 24.44° C | 61% | 1018.9 hPa | 0 mm | - | 0 W/m² | - |
| 1788261540 | 23.89° C | 61% | 1018.7 hPa | 0 mm | - | 0 W/m² | - |
| 1788261238 | 23.89° C | 62% | 1018.6 hPa | 0 mm | - | 0 W/m² | - |
| 1788260937 | 23.89° C | 62% | 1018.7 hPa | 0 mm | - | 0 W/m² | - |
| 1788260633 | 23.89° C | 62% | 1018.7 hPa | 0 mm | - | 0 W/m² | - |
| 1788260329 | 23.89° C | 63% | 1018.7 hPa | 0 mm | - | 0 W/m² | - |
| 1788260024 | 23.89° C | 62% | 1018.6 hPa | 0 mm | - | 0 W/m² | - |
| 1788259720 | 23.89° C | 62% | 1018.6 hPa | 0 mm | - | 0 W/m² | - |
* Rain latest hour (hover to see other rain measurements)
** Current wind speed in m/s (hover to see current wind gust speed)